Home   Weather   Kilgore   Past weeks

Flag for USA Past Weather in Kilgore, Texas, USA — Yesterday and Last 2 Weeks

Now
58 °F

Partly sunny.


Feels Like: 56 °F
Forecast: 54 / 63 °F
Wind: 9 mph from Southwest

Location: Gregg County Airport

Current Time: Jan 19, 2017 at 5:39:55 pm

Latest Report: Jan 19, 2017 at 4:53 pm


Visibility: 10 mi

Pressure: 29.72 "Hg

Humidity: 87%

Dew Point: 54 °F

Location of KilgoreLocation

Past Weather in Kilgore — Graph

°F

Kilgore Temperature Yesterday

Maximum temperature yesterday: 59 °F (at 3:53 pm)
Minimum temperature yesterday: 50 °F (at 12:53 am)
Average temperature yesterday: 54 °F

High & Low Weather Summary for the Past Weeks

 TemperatureHumidityPressure
High79 °F (Jan 12, 1:53 pm)100% (Jan 5, 7:53 am)30.77 "Hg (Jan 5, 7:53 am)
Low16 °F (Jan 7, 2:53 am)20% (Jan 8, 3:53 pm)29.70 "Hg (Jan 19, 2:53 pm)
Average54 °F83%30.18 "Hg
* Reported Jan 4 3:53 pm — Jan 19 3:53 pm, Kilgore, Weather by CustomWeather, © 2017

Note: Actual official high and low records may vary slightly from our data, if they occured in-between our weather recording intervals... More about our weather records

Advertising

Kilgore Weather History for the Previous 24 Hours

Scroll right to see more
 ConditionsComfort  
Time TempWeatherWind HumidityBarometerVisibility
3:53 pm
Thu, Jan 19
59 °FPartly sunny.7 mph87%29.70 "Hg10 mi
2:53 pm58 °FOvercast.13 mph93%29.70 "Hg10 mi
1:53 pm57 °FFog.13 mph96%29.73 "Hg6 mi
1:22 pm57 °FFog.7 mph96%29.75 "Hg10 mi
12:53 pm56 °FFog.12 mph100%29.77 "Hg6 mi
11:53 am55 °FFog.7 mph100%29.82 "Hg3 mi
10:53 am55 °FFog.3 mph100%29.83 "Hg1 mi
10:02 am54 °FFog.7 mph100%29.86 "Hg1 mi
9:58 am54 °FFog.7 mph100%29.86 "Hg1 mi
8:53 am53 °FFog.5 mph100%29.86 "Hg1 mi
7:53 am53 °FFog.No wind100%29.85 "Hg1 mi
7:38 am53 °FFog.No wind100%29.85 "Hg1 mi
6:53 am53 °FFog.No wind100%29.86 "Hg1 mi
5:53 am53 °FFog.3 mph100%29.85 "Hg1 mi
5:20 am53 °FFog.5 mph100%29.87 "Hg1 mi
4:53 am53 °FFog.6 mph100%29.86 "Hg2 mi
3:53 am53 °FMostly cloudy.3 mph100%29.88 "Hg9 mi
2:53 am53 °FMostly cloudy.No wind100%29.91 "Hg9 mi
1:53 am53 °FLow clouds.No wind100%29.93 "Hg8 mi
1:00 am53 °FMostly cloudy.No wind100%29.93 "Hg10 mi
11:53 pm
Wed, Jan 18
54 °FLow clouds.3 mph100%29.94 "Hg10 mi
11:06 pm54 °FFog.3 mph100%29.96 "Hg4 mi
10:20 pm54 °FFog.3 mph100%29.97 "Hg2 mi
9:53 pm54 °FFog.6 mph100%29.97 "Hg1 mi
8:53 pm54 °FFog.5 mph100%29.97 "Hg1 mi
7:53 pm55 °FFog.6 mph100%29.98 "Hg1 mi
6:53 pm56 °FFog.8 mph100%29.98 "Hg0 mi
5:53 pm59 °FLow clouds.5 mph100%29.98 "Hg10 mi
Weather by CustomWeather, © 2017

See weather overviewHow to use our weather pages